FW4751 Weather Reports


Display with metric or nautical units.
time (UTC)temp
F
wind
direction
speed
MPH
gust
MPH
rain 1hr
in
rain 24hr
in
rain mn
in
humidity
%
barometer
mb
20211209045004 53 0.0 2.0 0.00 0.00 0.00 90 1015.3
20211209044504 53 293 1.0 2.0 0.00 0.00 0.00 90 1015.3
20211209044004 53 0.0 2.0 0.00 0.00 0.00 90 1015.3
20211209043504 53 0 1.0 2.0 0.00 0.00 0.00 90 1015.2
20211209043004 53 0.0 1.0 0.00 0.00 0.00 89 1015.4
20211209042504 53 338 1.0 2.0 0.00 0.00 0.00 89 1015.5
20211209042004 53 0.0 2.0 0.00 0.00 0.00 89 1015.2
20211209041504 53 0.0 1.0 0.00 0.00 0.00 89 1015.1
20211209041004 53 0.0 2.0 0.00 0.00 0.00 89 1015.2
20211209040504 53 0.0 2.0 0.00 0.00 0.00 89 1015.5
20211209040005 53 0.0 2.0 0.00 0.00 0.00 89 1015.5
20211209035504 53 0.0 2.0 0.00 0.00 0.00 89 1015.5
20211209035004 53 225 1.0 2.0 0.00 0.00 0.00 89 1015.5
20211209034504 54 248 1.0 2.0 0.00 0.00 0.00 89 1015.6
20211209034004 54 0.0 1.0 0.00 0.00 0.00 88 1015.4
20211209033504 54 0.0 1.0 0.00 0.00 0.00 89 1015.6
20211209033004 54 270 1.0 2.0 0.00 0.00 0.00 88 1015.6
20211209032504 54 0.0 1.0 0.00 0.00 0.00 88 1015.6
20211209032004 54 293 1.0 2.0 0.00 0.00 0.00 88 1015.6
20211209031504 54 270 1.0 3.0 0.00 0.00 0.00 88 1015.5
20211209031004 54 315 1.0 3.0 0.00 0.00 0.00 88 1015.5
20211209030504 54 293 2.0 3.0 0.00 0.00 0.00 88 1015.5
20211209030004 54 293 2.0 3.0 0.00 0.00 0.00 89 1015.5
20211209025504 54 293 2.0 4.0 0.00 0.00 0.00 88 1015.6
20211209025004 54 293 2.0 4.0 0.00 0.00 0.00 88 1015.6
20211209024504 54 293 2.0 3.0 0.00 0.00 0.00 88 1015.6
20211209024004 54 293 2.0 4.0 0.00 0.00 0.00 88 1015.6
20211209023504 54 315 1.0 4.0 0.00 0.00 0.00 87 1015.6
20211209023004 54 293 1.0 3.0 0.00 0.00 0.00 87 1015.5
20211209022504 55 293 2.0 5.0 0.00 0.00 0.00 86 1015.6
20211209022004 55 293 2.0 5.0 0.00 0.00 0.00 85 1015.7
20211209021504 55 293 2.0 4.0 0.00 0.00 0.00 84 1015.6
20211209021004 56 293 2.0 4.0 0.00 0.00 0.00 84 1015.6
20211209020504 56 270 1.0 3.0 0.00 0.00 0.00 84 1015.6
20211209020004 56 293 2.0 4.0 0.00 0.00 0.00 83 1015.7
20211209015504 56 293 3.0 6.0 0.00 0.00 0.00 83 1015.6
20211209015004 56 293 2.0 4.0 0.00 0.00 0.00 84 1015.5
20211209014504 56 293 2.0 6.0 0.00 0.00 0.00 84 1015.5
20211209014004 56 293 1.0 3.0 0.00 0.00 0.00 85 1015.5
20211209013504 56 248 1.0 2.0 0.00 0.00 0.00 85 1015.5
20211209013004 56 248 1.0 2.0 0.00 0.00 0.00 85 1015.5
20211209012504 56 248 1.0 4.0 0.00 0.00 0.00 86 1015.6
20211209012004 56 248 1.0 3.0 0.00 0.00 0.00 86 1015.6
20211209011504 56 225 1.0 4.0 0.00 0.00 0.00 86 1015.7
20211209011004 56 225 1.0 3.0 0.00 0.00 0.00 85 1015.8
20211209010504 56 203 1.0 2.0 0.00 0.00 0.00 85 1015.8
20211209005504 56 203 1.0 3.0 0.00 0.00 0.00 86 1015.8
20211209005004 56 203 1.0 3.0 0.00 0.00 0.00 86 1015.9
20211209004504 56 203 1.0 3.0 0.00 0.00 0.00 87 1016.0
20211209004004 56 203 1.0 2.0 0.00 0.00 0.00 87 1016.0
20211209003504 56 293 1.0 2.0 0.00 0.00 0.00 87 1016.1
20211209002004 57 45 2.0 4.0 0.00 0.00 0.00 86 1016.1
20211209001504 57 45 1.0 2.0 0.00 0.00 0.00 86 1016.2
20211209001003 57 90 1.0 3.0 0.00 0.00 0.00 86 1016.1
20211209000504 57 0 1.0 2.0 0.00 0.00 0.00 86 1016.0
20211209000004 57 68 1.0 3.0 0.00 0.00 0.00 85 1016.1
20211208235504 57 68 1.0 3.0 0.00 0.00 0.00 86 1016.0
20211208235003 57 45 2.0 3.0 0.00 0.00 0.00 86 1016.1
20211208234504 57 23 2.0 3.0 0.00 0.00 0.00 86 1016.0
20211208234004 57 45 1.0 2.0 0.00 0.00 0.00 86 1016.1
20211208233504 57 135 1.0 2.0 0.00 0.00 0.00 86 1016.1
20211208233004 57 113 1.0 2.0 0.00 0.00 0.00 86 1016.0
20211208232503 57 23 1.0 3.0 0.00 0.00 0.00 86 1015.9
20211208232003 57 90 2.0 4.0 0.00 0.00 0.00 86 1015.9
20211208231504 56 90 1.0 4.0 0.00 0.00 0.00 87 1015.9
20211208231004 56 90 1.0 3.0 0.00 0.00 0.00 87 1016.0
20211208230503 56 90 2.0 4.0 0.00 0.00 0.00 87 1016.0
20211208230003 56 90 3.0 5.0 0.00 0.00 0.00 87 1016.1
20211208225503 56 45 2.0 5.0 0.00 0.00 0.00 86 1016.1
20211208225003 56 23 2.0 3.0 0.00 0.00 0.00 86 1016.3
20211208224504 56 23 2.0 5.0 0.00 0.00 0.00 86 1016.2
20211208224003 56 45 2.0 5.0 0.00 0.00 0.00 86 1016.3
20211208223504 56 45 3.0 4.0 0.00 0.00 0.00 85 1016.4
20211208223004 57 0 2.0 4.0 0.00 0.00 0.00 86 1016.3
20211208222503 56 23 2.0 5.0 0.00 0.00 0.00 86 1016.3
20211208222003 56 45 2.0 4.0 0.00 0.00 0.00 85 1016.4
20211208221503 57 45 1.0 3.0 0.00 0.00 0.00 86 1016.4
20211208221003 57 23 1.0 3.0 0.00 0.00 0.00 86 1016.4
20211208220503 56 23 3.0 5.0 0.00 0.00 0.00 86 1016.3
20211208220003 56 23 3.0 6.0 0.00 0.00 0.00 86 1016.3
20211208215503 56 45 2.0 4.0 0.00 0.00 0.00 86 1016.5
20211208215003 56 23 2.0 5.0 0.00 0.00 0.00 86 1016.5
20211208214503 56 23 3.0 5.0 0.00 0.00 0.00 86 1016.5
20211208214003 56 23 3.0 6.0 0.00 0.00 0.00 86 1016.5
20211208213503 56 23 3.0 5.0 0.00 0.00 0.00 86 1016.5
20211208213003 56 23 3.0 5.0 0.00 0.00 0.00 86 1016.6
20211208212503 56 23 2.0 4.0 0.00 0.00 0.00 86 1016.7
20211208212003 56 0 3.0 6.0 0.00 0.00 0.00 86 1016.7
20211208211503 56 23 3.0 5.0 0.00 0.00 0.00 87 1016.6
20211208211003 56 23 3.0 5.0 0.00 0.00 0.00 86 1016.5
20211208210503 56 45 3.0 5.0 0.00 0.00 0.00 86 1016.6
20211208210003 56 23 2.0 4.0 0.00 0.00 0.00 87 1016.8
20211208205503 56 45 2.0 5.0 0.00 0.00 0.00 87 1016.9
20211208205003 56 45 2.0 5.0 0.00 0.00 0.00 86 1017.0
20211208204503 56 23 2.0 4.0 0.00 0.00 0.00 87 1017.0
20211208204003 56 23 2.0 3.0 0.00 0.00 0.00 87 1017.1
20211208203503 56 68 2.0 5.0 0.00 0.00 0.00 87 1017.2
20211208203003 56 23 2.0 5.0 0.00 0.00 0.00 87 1017.3
20211208202543 56 45 2.0 4.0 0.00 0.00 0.00 87 1017.3
20211208202003 56 90 2.0 4.0 0.00 0.00 0.00 87 1017.4
20211208201503 56 90 2.0 5.0 0.00 0.00 0.00 87 1017.4
20211208201003 56 90 2.0 4.0 0.00 0.00 0.00 88 1017.4
20211208200503 56 90 1.0 4.0 0.00 0.00 0.00 88 1017.4
20211208200003 56 90 2.0 4.0 0.00 0.00 0.00 88 1017.5
20211208195503 56 45 2.0 5.0 0.00 0.00 0.00 88 1017.5
20211208195003 56 45 2.0 5.0 0.00 0.00 0.00 87 1017.5
20211208194503 56 90 2.0 5.0 0.00 0.00 0.00 88 1017.6
20211208194003 56 90 2.0 6.0 0.00 0.00 0.00 88 1017.7
20211208193503 56 90 2.0 5.0 0.00 0.00 0.00 89 1017.8
20211208193003 56 90 2.0 5.0 0.00 0.00 0.00 88 1017.9
20211208192503 56 90 2.0 5.0 0.00 0.00 0.00 89 1017.9
20211208192003 56 90 3.0 7.0 0.00 0.00 0.00 88 1018.0
20211208191503 56 45 3.0 8.0 0.00 0.00 0.00 88 1018.0
20211208191003 57 90 3.0 6.0 0.00 0.00 0.00 88 1018.0
20211208190503 57 90 2.0 6.0 0.00 0.00 0.00 88 1018.0
20211208190003 56 113 3.0 6.0 0.00 0.00 0.00 89 1018.2
20211208185503 57 68 3.0 5.0 0.00 0.00 0.00 88 1018.2
20211208185003 57 90 2.0 5.0 0.00 0.00 0.00 89 1018.2
20211208184503 56 45 2.0 5.0 0.00 0.00 0.00 89 1018.3
20211208184003 56 23 2.0 5.0 0.00 0.00 0.00 89 1018.4
20211208183503 56 23 3.0 5.0 0.00 0.00 0.00 90 1018.3
20211208183003 56 23 3.0 7.0 0.00 0.00 0.00 90 1018.4
20211208182503 56 23 2.0 6.0 0.00 0.00 0.00 90 1018.4
20211208182003 56 23 3.0 7.0 0.00 0.00 0.00 90 1018.4
20211208181503 56 45 3.0 5.0 0.00 0.00 0.00 91 1018.3
20211208181003 55 0 3.0 6.0 0.00 0.00 0.00 91 1018.2
20211208180503 55 338 2.0 4.0 0.00 0.00 0.00 93 1018.3
20211208180003 54 338 2.0 5.0 0.00 0.00 0.00 94 1018.2
20211208175503 54 0 3.0 6.0 0.00 0.00 0.00 94 1018.2
20211208175003 54 23 2.0 5.0 0.00 0.00 0.00 95 1018.2
20211208174503 54 338 2.0 4.0 0.00 0.00 0.00 96 1018.1
20211208174003 53 23 2.0 4.0 0.00 0.00 0.00 96 1018.0
20211208173503 53 23 2.0 4.0 0.00 0.00 0.00 97 1018.0
20211208173003 52 0.0 2.0 0.00 0.00 0.00 97 1017.9
20211208172503 52 0.0 2.0 0.00 0.00 0.00 97 1017.8
20211208172002 52 270 1.0 4.0 0.00 0.00 0.00 97 1018.0
20211208171503 51 248 1.0 2.0 0.00 0.00 0.00 97 1017.9
20211208171002 51 203 1.0 2.0 0.00 0.00 0.00 97 1017.9
20211208170505 51 293 1.0 2.0 0.00 0.00 0.00 97 1017.9
20211208170005 51 293 2.0 3.0 0.00 0.00 0.00 98 1018.1
20211208165505 51 293 1.0 2.0 0.00 0.00 0.00 97 1018.0
20211208165005 51 315 1.0 3.0 0.00 0.00 0.00 98 1017.9
20211208164505 50 225 1.0 3.0 0.00 0.00 0.00 98 1018.0
20211208164005 50 293 1.0 3.0 0.00 0.00 0.00 97 1018.0
20211208163505 50 293 2.0 3.0 0.00 0.00 0.00 98 1018.0
20211208163004 50 293 1.0 3.0 0.00 0.00 0.00 98 1017.9
20211208162505 50 270 1.0 2.0 0.00 0.00 0.00 98 1017.8
20211208162005 49 293 1.0 3.0 0.00 0.00 0.00 98 1017.8
20211208161505 49 315 1.0 4.0 0.00 0.00 0.00 98 1017.7
20211208161003 49 293 1.0 3.0 0.00 0.00 0.00 98 1017.5
20211208160504 49 293 2.0 4.0 0.00 0.00 0.00 98 1017.3
20211208160005 49 293 1.0 2.0 0.00 0.00 0.00 98 1017.0
20211208155505 49 135 1.0 2.0 0.00 0.00 0.00 97 1017.0
20211208155005 48 203 1.0 2.0 0.00 0.00 0.00 97 1016.8
20211208154505 48 135 1.0 3.0 0.00 0.00 0.00 97 1016.9
20211208154004 48 135 1.0 2.0 0.00 0.00 0.00 98 1017.0
20211208153505 48 203 1.0 3.0 0.00 0.00 0.00 98 1017.3
20211208153005 48 225 2.0 4.0 0.00 0.00 0.00 98 1017.3
20211208152504 48 0.0 2.0 0.00 0.00 0.00 98 1017.3
20211208152005 48 0 1.0 3.0 0.00 0.00 0.00 97 1017.5
20211208151505 47 315 1.0 3.0 0.00 0.00 0.00 97 1017.5
20211208151004 47 315 1.0 3.0 0.00 0.00 0.00 98 1017.5
20211208150504 46 293 1.0 4.0 0.00 0.01 0.00 97 1017.4
20211208150004 46 293 2.0 3.0 0.00 0.01 0.00 97 1017.3
20211208145505 46 293 2.0 4.0 0.00 0.01 0.00 97 1017.1
20211208145004 46 293 1.0 3.0 0.00 0.01 0.00 97 1017.0
20211208144504 46 315 1.0 3.0 0.00 0.01 0.00 97 1016.9
20211208144005 46 270 1.0 3.0 0.00 0.01 0.00 97 1016.8
20211208143504 47 113 1.0 2.0 0.00 0.01 0.00 97 1016.7
20211208143004 47 135 1.0 2.0 0.00 0.01 0.00 97 1016.6
20211208142504 47 158 1.0 2.0 0.00 0.01 0.00 97 1016.8
20211208142004 47 135 1.0 2.0 0.00 0.01 0.00 97 1017.1
20211208141504 47 293 1.0 2.0 0.00 0.01 0.00 97 1017.2
20211208141004 47 203 1.0 2.0 0.00 0.01 0.00 97 1017.0
20211208140505 47 203 1.0 2.0 0.00 0.01 0.00 97 1017.1
20211208140004 47 0.0 1.0 0.00 0.01 0.00 97 1017.2
20211208135505 48 0.0 0.0 0.00 0.01 0.00 97 1017.1
20211208135004 47 0 1.0 2.0 0.00 0.01 0.00 97 1017.2
20211208134504 47 338 1.0 2.0 0.00 0.01 0.00 96 1017.2
20211208134004 48 270 1.0 2.0 0.00 0.01 0.00 97 1017.2
20211208133504 48 293 1.0 2.0 0.00 0.01 0.00 96 1017.2
20211208133005 49 293 1.0 2.0 0.00 0.01 0.00 97 1017.3
20211208132504 49 0.0 1.0 0.00 0.02 0.00 97 1017.1
20211208132004 49 0.0 2.0 0.00 0.02 0.00 96 1017.1
20211208131504 50 338 1.0 2.0 0.00 0.02 0.00 97 1017.1
20211208131005 50 23 1.0 2.0 0.00 0.02 0.00 96 1017.0
20211208130504 50 0.0 1.0 0.00 0.02 0.00 97 1016.7
20211208130004 50 338 1.0 2.0 0.00 0.02 0.00 97 1016.8
20211208125504 50 45 1.0 3.0 0.00 0.02 0.00 97 1016.8
20211208125004 50 135 2.0 6.0 0.00 0.02 0.00 97 1016.7
20211208124504 50 135 1.0 5.0 0.00 0.02 0.00 97 1016.6
20211208124004 50 158 1.0 5.0 0.00 0.02 0.00 97 1016.9
20211208123504 50 135 1.0 5.0 0.00 0.02 0.00 97 1016.9
20211208123004 50 135 1.0 5.0 0.00 0.02 0.00 97 1017.0
20211208122504 50 135 1.0 5.0 0.00 0.02 0.00 97 1016.9
20211208122004 50 158 2.0 4.0 0.00 0.02 0.00 97 1017.1
20211208121504 50 113 1.0 3.0 0.00 0.02 0.00 97 1017.3
20211208121004 50 113 1.0 2.0 0.00 0.02 0.00 97 1017.5
20211208120505 50 135 1.0 3.0 0.00 0.02 0.00 97 1017.5
20211208120004 49 135 1.0 2.0 0.00 0.02 0.00 97 1017.7
20211208115504 49 90 1.0 2.0 0.00 0.02 0.00 97 1017.8
20211208115004 49 135 1.0 2.0 0.00 0.02 0.00 97 1017.8
20211208114504 48 135 1.0 2.0 0.00 0.02 0.00 97 1017.9
20211208114004 48 0.0 2.0 0.00 0.02 0.00 97 1018.1
20211208113504 48 90 1.0 1.0 0.00 0.02 0.00 97 1017.9
20211208113004 48 0.0 1.0 0.00 0.03 0.00 97 1017.9
20211208112504 48 0.0 1.0 0.00 0.03 0.00 97 1018.0
20211208112004 49 0.0 1.0 0.00 0.03 0.00 97 1017.9
20211208111504 49 135 1.0 2.0 0.00 0.03 0.00 97 1017.8
20211208111004 49 135 1.0 2.0 0.00 0.03 0.00 97 1017.9
20211208110504 49 0.0 1.0 0.00 0.03 0.00 97 1018.0
20211208110004 49 135 1.0 3.0 0.00 0.03 0.00 97 1017.8
20211208105504 49 158 1.0 2.0 0.00 0.03 0.00 97 1018.0
20211208105004 49 0.0 2.0 0.00 0.04 0.00 97 1018.1
20211208104504 50 0.0 2.0 0.00 0.04 0.00 97 1018.0
20211208104004 50 293 1.0 3.0 0.00 0.04 0.00 97 1018.1
20211208103504 50 203 1.0 2.0 0.00 0.04 0.00 97 1017.9
20211208103004 50 203 1.0 2.0 0.00 0.04 0.00 97 1017.9
20211208102504 50 203 1.0 3.0 0.00 0.04 0.00 97 1017.9
20211208102004 50 225 1.0 2.0 0.00 0.04 0.00 97 1018.0
20211208101504 50 225 1.0 3.0 0.00 0.04 0.00 97 1018.0
20211208101004 50 270 1.0 3.0 0.00 0.04 0.00 97 1018.1
20211208100504 50 248 1.0 2.0 0.00 0.04 0.00 97 1017.9
20211208100004 50 225 1.0 2.0 0.00 0.04 0.00 97 1017.9
20211208095504 50 248 2.0 4.0 0.00 0.04 0.00 97 1017.9
20211208095004 50 270 2.0 4.0 0.00 0.04 0.00 97 1018.1
20211208094504 50 248 2.0 5.0 0.00 0.04 0.00 97 1018.0
20211208094004 50 270 2.0 5.0 0.00 0.04 0.00 97 1017.9
20211208093504 50 293 2.0 3.0 0.00 0.04 0.00 97 1017.8
20211208093004 49 293 2.0 5.0 0.00 0.04 0.00 97 1017.7
20211208092504 49 293 1.0 3.0 0.00 0.04 0.00 97 1017.6
20211208092004 49 293 1.0 2.0 0.00 0.04 0.00 97 1017.4
20211208091504 48 0.0 2.0 0.00 0.04 0.00 97 1017.4
20211208091004 47 315 1.0 3.0 0.00 0.04 0.00 97 1017.5
20211208090504 46 315 1.0 2.0 0.00 0.04 0.00 97 1017.3
20211208090004 46 293 1.0 2.0 0.00 0.04 0.00 97 1017.4
20211208085504 46 293 2.0 3.0 0.00 0.04 0.00 97 1017.3
20211208085004 46 338 1.0 2.0 0.00 0.04 0.00 97 1017.3
20211208084504 45 338 1.0 2.0 0.00 0.04 0.00 97 1017.3
20211208084004 46 158 1.0 2.0 0.00 0.05 0.00 96 1017.1
20211208083504 46 158 1.0 3.0 0.00 0.05 0.00 96 1017.0
20211208083004 45 158 1.0 3.0 0.00 0.05 0.00 97 1017.1
20211208082504 45 293 1.0 2.0 0.00 0.05 0.00 96 1017.1
20211208082004 45 315 2.0 3.0 0.00 0.05 0.00 96 1017.0
20211208081520 46 0.0 2.0 0.00 0.06 0.00 96 1017.0
20211208081004 46 293 1.0 2.0 0.00 0.06 0.00 96 1016.9
20211208080526 46 135 1.0 2.0 0.00 0.06 0.00 97 1016.8
20211208080004 46 0.0 1.0 0.00 0.06 0.06 96 1017.1
20211208075504 46 270 1.0 2.0 0.00 0.06 0.06 96 1017.1
20211208075004 46 270 1.0 2.0 0.00 0.06 0.06 96 1017.2
20211208074504 46 180 1.0 2.0 0.00 0.06 0.06 96 1017.0
20211208074005 46 225 1.0 2.0 0.00 0.06 0.06 96 1017.2
20211208073504 46 293 1.0 2.0 0.00 0.06 0.06 96 1017.1
20211208073004 47 135 1.0 3.0 0.00 0.06 0.06 96 1017.1
20211208072504 46 135 1.0 3.0 0.00 0.06 0.06 96 1017.3
20211208072004 46 0.0 1.0 0.00 0.06 0.06 96 1017.2
20211208071504 46 158 1.0 3.0 0.00 0.06 0.06 96 1017.4
20211208071004 46 0.0 1.0 0.00 0.06 0.06 96 1017.4
20211208070504 46 0.0 2.0 0.00 0.06 0.06 96 1017.5
20211208070004 46 225 1.0 2.0 0.00 0.06 0.06 96 1017.4
20211208065504 46 0.0 2.0 0.00 0.06 0.06 96 1017.4
20211208065004 46 293 1.0 2.0 0.00 0.06 0.06 96 1017.4
20211208064504 47 270 1.0 2.0 0.00 0.06 0.06 96 1017.2
20211208064004 47 293 2.0 3.0 0.00 0.06 0.06 96 1017.2
20211208063504 47 225 1.0 2.0 0.00 0.06 0.06 96 1017.1
20211208063004 47 135 1.0 2.0 0.00 0.06 0.06 96 1017.0
20211208062504 47 158 1.0 2.0 0.00 0.06 0.06 96 1017.1
20211208062004 47 315 1.0 2.0 0.00 0.06 0.06 96 1017.0
20211208061504 47 23 1.0 2.0 0.00 0.06 0.06 96 1017.0
20211208061004 47 0.0 1.0 0.00 0.06 0.06 96 1016.9
20211208060504 47 338 1.0 1.0 0.00 0.06 0.06 96 1016.9
20211208060004 47 180 1.0 2.0 0.00 0.06 0.06 96 1016.9
20211208055504 47 0.0 1.0 0.00 0.06 0.06 96 1017.1
20211208055004 47 315 1.0 1.0 0.00 0.06 0.06 95 1017.3
20211208054504 48 0.0 1.0 0.00 0.06 0.06 95 1017.1
20211208054004 48 0.0 1.0 0.00 0.06 0.06 95 1017.2
20211208053504 48 0.0 1.0 0.00 0.06 0.06 95 1017.0
20211208053004 48 0.0 1.0 0.00 0.06 0.06 95 1016.9
20211208052504 48 0.0 2.0 0.00 0.06 0.06 95 1016.9
20211208052004 48 203 1.0 2.0 0.00 0.06 0.06 95 1016.8
20211208051504 48 135 1.0 2.0 0.00 0.06 0.06 95 1016.9
20211208051004 48 0 1.0 2.0 0.00 0.06 0.06 95 1016.9
20211208050504 49 293 1.0 2.0 0.00 0.06 0.06 95 1016.9
20211208050004 49 135 1.0 3.0 0.00 0.06 0.06 95 1017.0
20211208045504 49 0.0 2.0 0.00 0.06 0.06 95 1017.0